Location: Newark
(13.0000°N, 151.6000°E)
Time: 12:22:40
(UTC+00:00)

Hubble Space Telescope - Pass Details

Date: 15 April 2020
Orbit: 536 x 540 km, 28.5° (Epoch: 01 June)

Event Time Altitude Azimuth Distance (km) Brightness Sun altitude
Rises 09:59:31 0° 311° (NW) 2,661 5.4 -27.5°
Reaches altitude 10° 10:02:09 10° 327° (NNW) 1,771 4.0 -28.1°
Enters shadow 10:03:50 18° 347° (NNW) 1,336 3.1 -28.5°
